Welcome to the New NWS' Forecast!
Most changes are behind the scenes, but click here for differences you might notice.

Regional Weather Roundup (RWR)

Issued by National Weather Service (NWS)

                            
000
ASUS43 KFSD 230710
RWRSD 

WEATHER ROUNDUP FOR SOUTH DAKOTA
NATIONAL WEATHER SERVICE SIOUX FALLS SD
200 AM CDT TUE OCT 23 2018

NOTE: "FAIR" INDICATES FEW OR NO CLOUDS BELOW 12,000 FEET WITH NO
SIGNIFICANT WEATHER AND/OR OBSTRUCTIONS TO VISIBILITY.


SDZ001>005-009-010-012>017-230800-
NORTHWEST AND NORTH CENTRAL SOUTH DAKOTA
  
CITY           SKY/WX    TMP DP  RH WIND       PRES   REMARKS
BUFFALO          N/A     36  22  56 E7        30.24F                  
FAITH            N/A     40  27  59 SE12      30.29F                  
MOBRIDGE       PTCLDY    36  24  62 E3        30.31R                  
$$
 
SDZ012>016-024>037-041>051-057-063-072>074-230800-
SOUTHWEST AND SOUTH CENTRAL SOUTH DAKOTA
  
CITY           SKY/WX    TMP DP  RH WIND       PRES   REMARKS
RAPID CTY ARPT CLEAR     39  25  57 SE3       30.29S                  
PIERRE         CLEAR     34  26  72 E7        30.32R WCI  28          
CUSTER         CLEAR     30  22  72 NW3       30.30F                  
ELLSWORTH AFB  CLEAR     43  27  53 S7        30.28F                  
PHILIP         CLEAR     28  25  88 CALM      30.31S                  
PINE RIDGE     CLEAR     43  29  57 E8        30.28S                  
SPEARFISH      FAIR      37  30  75 SW5       30.24S                  
WINNER         FAIR      38  27  64 S3        30.33R                  
$$
 
SDZ004>011-016>023-039-040-230800-
NORTHEAST SOUTH DAKOTA
  
CITY           SKY/WX    TMP DP  RH WIND       PRES   REMARKS
ABERDEEN       CLEAR     26  19  74 N7        30.35R WCI  18          
WATERTOWN      CLOUDY    27  21  78 N3        30.31S                  
BROOKINGS      CLOUDY    28  25  88 CALM      30.32R                  
SISSETON         N/A     25  21  85 CALM      30.34R                  
$$
 
SDZ017-020-022-023-036>040-048>070-230800-
SOUTHEAST SOUTH DAKOTA
  
CITY           SKY/WX    TMP DP  RH WIND       PRES   REMARKS
SIOUX FALLS    CLEAR     35  27  72 N6        30.31R                  
HURON          CLEAR     24  20  84 NW5       30.33R WCI  18          
CHAMBERLAIN    CLEAR     35  31  88 CALM      30.34R                  
MITCHELL       CLEAR     33  26  75 W5        30.34R WCI  29          
YANKTON        CLEAR     39  29  67 W3        30.32R                  
$$
 
ABBREVIATIONS USED IN REMARKS
   TC - TEMPERATURE IN CELSIUS
  WCI - WIND CHILL INDEX
   HX - HEAT INDEX
  VSB - VISIBILITY